Find the Weather for any City, State  
or Zipcode, or Country:

West Linn, OR 97068 Weather
Local Radar
Local Radar  
Graphs, Details
Graphs and Gauges
Detailed Weather
Detailed Reports
Maps
Temperature
Heat Index
Windchill
Humidity
Radar
Dew Point
Wind
Visibility
Visible Satellite
Satellite
Fronts
Snow Depth
Jet Stream
Flight Rules
Forecast Maps
Temperature Forecast
Maximum Temperature Forecast
Minimum Temperature Forecast
Dewpoint Forecast
Prevalent Weather
12Hr Probability of Precip.
Sky Cover
Health Maps
UV Forecast
Air Quality
Peak Air Quality Index
Weather Station
Oregon Scientific WMR-968
Current Conditions [Select Refresh to Update]
Updated: 7:45am on 11/24/14
(location)
Currently:
46.2°
Clear
Overcast
High: 48.2° 
(12:00am) 
Low: 46.2° 
(7:37am)
Wind: 0 mph from the S
Gust: 4 mph
Today's High Wind: 5 mph (12:46am)
Humidity: 97%
Pressure: 30.34 in  (Steady) 
Pressure Rate: -0.000 in/hr
Dew Point: 45.4°
Wind Chill: 46.2°
Heat Index (feels like): 52.9°
Comfort Level: Cool
Temperature Rate:  -0.46°/hr
 
5 Day Forecast
 
Mon Tue Wed Thu Fri
Clear Clear Clear Clear Clear
Rain Chance Rain Mostly Cloudy Chance Rain Chance Rain
52° 57° 57° 61° 52°
52° 50° 48° 45° 41°
Records and Normals
 
Temperature Forecast Normal Record
High 52°
(0)
Low 52°
(0)
 
Weather Advisories
No Advisories
Full Advisory Text...
Weather Map
Almanac
 
Sunrise:  
7:22am
Moonrise: 
9:18am
Moon Phase:
5%
Sunset: 
4:33pm
Moonset:  
7:01pm
 Star Chart...
Rainfall Totals
Hourly Rain 0.00 in
Daily Rain: 0.00 in
Monthly Rain: 2.17 in
Yearly Rain: 44.09 in
Normal Rain, month to date: 0.00 in
Normal Rain, year to date: 0.00 in
Local Weather Exchange® Network
Station ID City 
(Click for Map Location)
Neighborhood 
(Click for History)
Last Update (Date & Time) Temperature
 (°)
Dew
Point (°)
Humidity 
(%)
Wind 
(mph)
from the Wind Gust 
(mph) 
Pressure (in) Hourly
Rain (in)
KORWESTL3 West Linn Sunburst II 11/24 07:44:04 46.2 45.0 97 0 South 0 30.34 0.00
KORWESTL7 West Linn Hidden Springs 11/24 06:12:45 46.0 46.0 98 0 ESE 0 30.34 0.00
KORWESTL11 West Linn Ridgebrook Park 11/24 07:40:44 44.8 44.0 95 0 SSE 2 30.37 0.00
KORWESTL13 West Linn Vineland 11/24 07:44:08 46.6 44.0 91 0 ENE 0 29.98 0.00
MORCO3 West Linn HADS WILLAMETTE RIVER BELOW OREGON CI OR US USGS 11/24 06:15:00 45.0 43.0 90 3 North 7 30.31 0.00
KORLAKEO12 Lake Oswego Marylhurst University 11/24 07:44:35 45.7 45.0 98 0 ENE 0 30.05 0.00
KORWESTL14 West Linn Stafford - Tualatin Valley 11/24 07:41:41 45.9 46.0 100 0 North 0 30.49 0.00
KOROREGO29 Oregon City Canemah Way 11/24 07:42:14 44.1 44.0 98 0 NE 1 30.36 0.00
KORGLADS5 GLADSTONE GLADSTONE (USA) 11/24 07:45:03 45.5 44.0 95 0 SSW 0 30.08 0.00
KOROREGO14 Oregon City 221 Molalla Avenue 11/24 07:45:04 44.0 44.0 100 0 ESE 1 30.02 0.00
KORLAKEO17 Lake Oswego Palisades 11/24 07:41:30 44.1 43.0 95 0 North 0 30.40 0.00
KOROREGO10 Oregon City Tower Vista 11/24 07:45:04 44.1 45.0 98 0 West 0 30.36 0.00
KORGLADS6 Gladstone Gladstone - Gallweather.com 11/24 07:40:32 44.1 44.0 98 0 SSW 0 30.34 0.00
KORPORTL111 Portland Oakgrove PO 1E (Milwaukie) 11/24 07:45:04 45.1 45.0 100 0 East 0 30.34 0.00
KORGLADS4 Gladstone Gladstone - Go Beavers! 11/24 07:44:51 44.6 44.0 97 2 NE 3 29.92 0.00
KORLAKEO14 Lake Oswego Rivergrove 11/24 07:40:16 45.3 45.0 100 0 North 0 30.29 0.00
KORMILWA9 Milwaukie Milwaukie @ 205 Clackamas 11/24 07:40:14 45.5 42.0 87 0 South 0 30.10 0.00
KORCLACK9 Clackamas 82nd Drive (GO BLAZERS) 11/24 07:45:04 44.3 44.0 100 0 ESE 0 30.35 0.00
KORCLACK8 Clackamas Watkins Park 11/24 07:44:58 44.1 44.0 98 0 North 0 30.29 0.00
KORCLACK6 Clackamas CHPCS Falcons 11/24 07:34:26 46.0 45.0 97 0 ENE 0 30.32 0.00
KORLAKEO16 Lake Oswego Portland Near Road 11/24 07:40:38 46.2 0.0 99 2 North 0 --- 0.00
KORTUALA2 Tualatin 3DAdams Weather 11/24 07:45:03 46.8 46.0 97 0 SSE 0 30.36 0.00
KORPORTL245 Portland SW Portland - Tryon Creek 11/24 07:34:46 44.8 44.0 99 0 SE 0 30.38 0.00
KORTUALA3 Tualatin Tualatin 11/24 07:44:23 46.1 46.0 98 0 West 0 30.39 0.00
KORMILWA5 Milwaukie meso_neigh25 11/24 07:45:02 44.8 44.0 100 0 South 0 30.32 0.00
KORMILWA6 Milwaukie Logus-Stanley 11/24 07:44:13 45.1 44.0 97 0 North 0 30.40 0.00
KORPORTL104 Portland West Portland Park 11/24 07:43:55 44.3 44.0 97 0 West 0 30.34 0.00
KOROREGO23 Oregon City Bradley Rd 11/24 07:43:58 44.1 42.0 93 0 South 1 30.35 0.00
KORPORTL227 Portland Ardenwald Station #1 11/24 07:42:04 45.0 44.0 98 0 SSW 0 30.35 0.00
KORPORTL172 Portland Portland Rowing Club 11/24 07:44:56 45.6 45.0 98 0 North 0 30.39 0.00
KORPORTL200 Portland South Burlingame 11/24 07:45:04 46.4 44.0 91 0 North 0 29.99 0.16
KORTUALA7 Tualatin Lake Forest 11/24 07:44:55 46.2 46.0 98 0 ESE 0 30.15 0.00
KORCANBY3 Canby West of Fair Grounds 11/24 07:44:47 43.1 42.0 94 0 South 0 30.37 0.00
KORWILSO8 Wilsonville Charbonneau Lakeside 11/24 07:45:00 45.0 44.0 97 0 WSW 1 29.95 0.00
KUAO Aurora Official Station 11/24 06:53:00 44.0 43.0 96 0 North --- 30.38 ---
KPDX Portland Official Station 11/24 06:53:00 47.0 47.0 100 5 ESE --- 30.38 ---
KVUO Vancouver Official Station 11/24 07:25:00 47.0 45.0 93 0 North --- 30.37 ---
KTTD Portland Troutdale Official Station 11/24 07:30:00 48.0 45.0 89 0 North --- 30.37 ---
Full Advisory Text
No Warnings

© Ambient Weather and Weather Underground
 Never base important decisions on this or any weather information obtained from the Internet
Updated Automatically by Ambient Weather's Virtual Weather Station  V13.01